Wind_Speed
11 13 14 14 13 14 15 14 15 14 14 13 12 12 12 14 13 6 5 8 3 2 2 4 3 4 4 6 6 8 5 5 4 6 5 5 6 6 9 11 15 13 11 9 11 13 16 7 15 16 9 8 13 15
11 12 14 14 13 14 14 15 15 14 14 14 13 12 12 12 10 7 8 6 7 2 4 2 1 5 3 4 3 10 5 6 5 5 6 5 7 7 11 11 14 15 12 10 13 10 11 13 16 2 5 14 12 10
12 13 15 15 14 15 16 16 15 15 14 14 12 12 11 10 7 9 10 5 6 2 2 3 5 10 9 7 4 2 7 6 8 5 4 4 7 7 9 11 14 16 15 11 13 17 18 19 16 15 11 8 15 16
11 14 15 14 14 15 17 18 17 17 16 16 15 13 11 9 6 10 6 3 3 1 1 3 7 9 12 12 11 10 11 8 7 5 5 5 7 6 9 12 12 10 12 14 12 17 16 19 17 11 14 14 16 18
11 13 17 17 17 15 18 18 18 17 17 16 15 13 10 8 7 4 2 1 1 3 1 2 8 10 11 13 15 14 13 9 6 7 6 9 9 9 9 11 14 11 15 11 13 15 14 17 14 18 18 18 17 19
11 12 14 17 17 18 20 20 20 19 18 18 17 13 11 9 5 1 2 7 5 1 1 2 3 7 14 19 15 14 12 9 8 6 7 9 16 9 6 12 20 19 19 19 18 19 19 21 19 20 20 18 17 16
12 16 12 11 16 18 18 21 20 20 18 18 18 15 12 11 7 1 3 4 8 4 1 3 3 5 9 11 8 6 12 5 6 7 8 11 10 9 12 17 20 20 19 17 16 14 17 20 15 15 16 17 19 22
15 13 10 11 14 14 17 20 18 18 17 20 20 14 12 9 5 4 7 8 7 4 1 3 3 5 9 4 3 2 2 0 3 4 5 9 8 9 9 19 19 20 20 20 20 19 19 18 19 20 18 14 16 19
15 17 10 11 14 13 12 18 20 16 18 22 21 15 8 3 2 1 10 8 4 1 2 4 5 2 3 3 3 2 3 4 4 5 9 5 5 9 13 15 17 16 14 15 15 11 15 17 17 15 11 18 17 17
16 17 14 11 16 19 22 24 23 23 21 19 15 4 3 5 6 6 3 2 2 3 3 4 4 3 5 4 4 3 4 4 3 6 3 6 13 22 21 19 15 13 13 7 8 17 14 14 16 14 17 14 7 3
15 17 18 17 19 22 24 23 22 20 18 9 3 3 2 11 8 3 3 4 5 4 5 5 9 7 3 4 2 4 2 3 3 1 5 3 4 11 17 19 19 20 17 14 18 17 13 19 16 13 10 3 8 12
18 20 21 22 22 20 20 21 20 12 6 6 2 5 6 3 3 3 3 3 5 3 4 4 0 1 1 2 4 4 3 3 3 7 3 3 1 3 3 4 8 2 15 16 19 15 11 3 2 3 8 9 12 15
20 22 22 20 18 17 16 16 15 5 5 1 1 3 3 4 4 4 5 3 3 3 2 3 2 1 2 1 2 2 3 4 5 3 3 2 4 6 7 7 7 10 9 4 6 8 8 9 15 13 10 14 18 16
20 19 19 17 16 14 14 12 9 3 1 2 5 4 4 4 4 4 5 1 2 2 2 2 1 3 2 3 2 3 3 3 3 4 4 4 7 7 6 8 8 8 8 9 9 9 9 10 12 14 14 15 17 15
17 17 17 16 13 11 11 10 6 7 3 3 3 3 5 4 1 2 4 1 1 4 3 1 3 3 3 3 3 4 2 4 4 3 3 4 6 4 4 6 5 6 5 6 5 7 8 10 11 11 12 13 15 16
16 13 11 14 13 10 10 8 5 3 3 2 3 3 4 3 3 2 2 4 3 3 2 2 3 3 5 4 5 6 4 3 3 2 3 5 3 4 4 4 4 4 4 4 5 6 8 8 9 10 13 13 11 13
16 2 14 15 13 10 11 4 4 4 4 3 3 1 4 5 3 1 4 6 2 5 3 3 4 7 3 3 4 4 2 3 1 3 3 4 2 4 4 3 3 4 4 5 6 6 8 10 11 10 8 10 10 11
4 9 10 15 13 9 8 4 2 3 5 5 4 3 5 4 2 3 3 4 4 3 3 2 4 4 3 3 1 2 3 2 2 3 2 2 2 4 4 4 4 5 5 6 7 7 8 8 8 7 10 12 11 11
11 8 9 16 18 9 4 4 4 3 6 3 5 4 2 2 5 6 4 3 2 1 1 2 4 4 4 3 3 1 1 1 1 2 3 2 2 3 2 8 6 5 7 7 8 7 7 4 9 9 10 9 9 10
7 3 3 20 18 2 2 3 3 4 3 3 4 5 4 4 4 5 5 3 3 2 3 3 4 3 0 2 2 2 2 2 0 1 3 5 7 7 5 6 6 7 6 5 5 6 6 6 5 7 8 5 9 9
5 7 7 22 6 2 3 2 5 3 3 3 3 5 3 5 5 5 5 6 6 3 3 4 4 3 1 1 2 3 0 1 2 2 4 2 5 2 2 2 3 8 6 5 4 4 4 4 7 7 9 8 8 11
5 13 7 10 4 5 3 5 2 1 2 3 3 4 3 3 3 4 4 6 4 5 5 5 4 1 1 0 1 3 4 3 2 1 1 2 2 2 1 2 4 3 4 5 5 5 6 5 9 8 9 10 10 11
7 3 4 7 4 3 3 4 3 3 3 2 2 3 3 3 3 4 3 3 3 2 1 2 3 3 1 3 3 2 2 3 2 4 6 5 6 8 6 3 5 4 3 5 7 7 8 8 11 11 11 11 10 10
2 1 2 3 6 2 1 2 3 3 2 3 3 2 2 2 2 2 5 5 2 4 2 2 1 4 4 2 3 1 2 3 4 5 2 3 1 4 8 7 7 7 8 7 8 10 10 12 12 11 13 11 10 11
4 4 3 4 3 5 5 4 4 4 4 5 5 3 1 2 2 3 4 1 4 4 4 3 2 1 2 2 1 2 2 3 4 4 3 4 3 5 1 5 6 7 8 10 7 12 13 13 14 12 13 11 11 11
3 4 5 3 4 4 6 3 6 6 6 3 3 2 1 2 2 4 2 3 3 4 3 1 2 2 2 3 3 3 6 6 5 4 6 5 4 3 2 3 3 6 11 14 12 13 14 15 15 15 14 14 13 12
3 2 3 2 2 2 1 1 1 2 2 4 2 3 3 3 5 2 3 4 5 8 8 6 7 5 4 6 8 9 8 7 8 6 5 5 5 5 5 3 3 5 6 13 15 16 16 16 16 17 15 15 16 16
3 6 8 9 4 2 2 3 3 4 4 4 3 5 3 4 1 3 4 8 9 9 8 8 10 9 9 8 8 8 8 9 11 8 5 6 7 6 6 5 3 2 2 8 10 14 17 18 18 18 18 17 17 20
4 9 8 6 5 4 4 4 4 4 2 1 1 1 1 3 5 3 7 9 10 10 10 8 9 10 7 7 7 8 7 8 7 7 7 5 5 7 8 6 5 6 6 6 7 10 14 17 18 21 21 21 21 21
5 8 5 4 4 4 1 3 3 3 3 2 1 2 1 3 8 13 13 13 11 9 7 7 7 8 8 8 8 10 11 5 6 5 4 5 6 14 13 14 12 10 9 9 8 8 9 11 13 14 15 17 18 18
5 5 4 5 4 6 8 8 3 2 2 2 1 1 2 4 4 14 17 12 13 13 11 10 10 12 10 9 10 8 6 10 15 13 12 12 12 11 11 11 11 9 7 8 8 7 7 8 9 10 11 12 12 12
7 5 5 4 6 7 8 7 5 3 4 5 5 3 4 4 4 3 15 12 13 12 14 12 10 10 11 11 10 11 11 13 15 15 14 14 12 12 12 12 11 11 10 9 11 11 11 11 10 11 12 13 14 14
9 8 5 5 4 6 6 7 4 2 3 2 2 1 2 3 5 4 13 18 18 15 14 13 11 11 11 10 10 14 14 14 14 15 15 15 13 12 12 11 12 11 9 8 10 12 13 15 15 14 13 12 12 12
Wind_Direction
152 152 151 144 144 146 145 145 135 133 137 134 129 126 124 124 113 96 70 34 24 103 136 339 35 194 176 198 172 150 142 191 170 197 209 212 234 244 255 251 254 238 229 235 230 247 255 255 268 267 349 348 324 319
170 168 167 163 162 163 163 161 154 149 144 142 140 132 128 128 109 81 93 43 10 61 86 44 349 320 341 335 274 161 182 172 174 211 223 238 243 249 255 252 238 246 257 259 249 255 245 260 294 297 249 305 322 326
181 174 172 172 170 173 171 170 165 158 151 152 147 142 140 142 109 65 104 85 62 41 165 184 223 233 248 252 287 277 202 227 205 203 260 283 265 280 258 253 257 257 258 254 261 263 280 282 285 291 316 303 306 317
190 189 182 177 181 177 174 172 170 167 162 162 157 151 144 132 111 71 90 62 40 52 239 175 166 215 221 221 228 235 276 314 310 236 235 244 251 269 276 289 281 278 289 287 292 284 279 281 287 313 307 323 312 314
194 194 193 190 188 188 179 174 172 172 173 168 163 159 155 150 129 90 102 153 61 319 0 301 319 238 209 206 214 221 232 248 250 247 238 236 248 266 271 281 269 267 266 267 271 276 284 290 302 301 308 307 302 300
191 190 185 187 190 190 187 185 177 182 180 176 167 167 169 172 151 128 15 189 173 284 336 272 304 241 213 215 219 222 227 231 242 244 250 250 259 254 259 251 255 256 255 263 273 284 288 287 290 292 286 290 301 297
182 173 175 192 188 183 184 186 183 185 185 188 176 177 179 184 180 332 34 67 160 142 171 275 252 181 196 194 204 223 238 234 235 244 240 253 256 259 255 257 262 268 281 278 272 284 280 262 261 268 280 290 296 289
184 189 183 186 182 175 183 183 178 181 181 190 188 184 170 181 208 198 188 145 116 84 294 267 260 170 167 163 180 207 209 43 219 234 234 233 248 239 251 250 261 261 258 258 261 263 268 275 276 275 273 275 287 280
177 179 154 162 178 166 169 179 167 159 152 139 134 138 121 192 191 115 141 156 187 249 252 234 242 272 326 168 124 166 227 232 206 228 232 231 228 227 247 255 255 262 256 255 258 307 310 301 288 277 273 262 264 234
170 175 163 142 141 146 135 128 129 131 133 135 137 171 182 203 186 172 97 148 142 181 224 250 253 226 193 178 192 203 195 235 233 218 206 230 246 254 258 258 260 258 266 259 262 253 257 255 251 245 247 244 259 283
154 157 161 154 140 136 137 136 134 134 137 169 162 189 148 150 171 197 181 210 175 208 214 234 233 255 232 222 246 214 206 233 248 195 183 234 253 240 254 249 251 251 248 238 246 267 239 210 225 215 217 117 65 95
143 144 145 148 147 144 144 146 149 152 145 149 157 156 144 195 209 215 209 201 205 244 186 200 160 142 139 188 215 204 238 224 265 155 222 251 334 83 42 15 351 235 213 231 241 254 275 229 285 16 88 85 90 99
145 145 148 150 148 147 151 158 163 100 138 132 203 190 208 188 204 215 186 214 225 180 220 153 160 163 183 231 236 275 251 243 143 231 253 281 127 63 38 22 38 33 15 309 308 313 335 55 55 85 88 102 106 105
150 151 154 147 142 148 156 160 186 195 194 226 195 195 233 169 232 211 253 350 70 72 71 60 169 185 183 188 256 263 270 304 265 236 247 67 64 65 43 28 42 29 25 42 51 57 68 75 79 82 96 119 119 122
157 158 163 166 162 164 162 168 209 191 236 234 200 227 216 241 279 345 339 348 46 136 133 241 256 228 184 197 205 252 247 245 235 286 41 59 79 98 90 89 74 54 39 46 48 71 82 88 89 92 106 122 120 125
157 152 173 177 175 177 178 180 190 233 270 231 231 247 247 302 250 221 212 249 267 113 71 253 266 238 210 206 180 211 238 241 22 49 43 94 86 78 90 84 81 75 64 62 67 72 84 88 98 107 111 113 126 131
168 200 176 176 172 174 183 207 200 224 217 212 234 242 280 290 286 333 223 233 214 157 206 224 229 220 204 221 209 208 256 27 59 20 19 22 115 130 128 133 117 111 105 107 108 96 96 114 127 126 118 121 124 125
203 125 163 176 167 167 185 212 254 238 237 219 239 210 204 235 259 256 259 254 181 212 209 259 302 249 246 249 313 50 64 90 312 22 77 68 70 121 177 154 158 137 128 125 124 129 143 176 164 115 131 131 131 135
228 220 211 184 182 179 184 225 178 261 227 213 218 233 205 225 223 240 253 256 262 144 244 242 258 255 269 322 39 50 137 288 69 126 113 176 74 140 131 134 164 164 146 155 163 167 170 117 126 145 148 171 147 151
228 227 262 189 186 146 223 234 244 254 250 221 221 226 216 216 222 213 215 217 215 178 221 230 246 309 7 325 21 350 24 17 339 184 150 147 153 172 192 202 207 169 167 163 125 132 127 124 135 140 149 167 143 139
174 163 135 163 207 238 271 208 208 225 243 243 220 199 226 214 211 201 207 202 204 222 220 244 275 265 168 17 333 322 293 323 331 339 353 84 136 159 121 225 145 155 166 191 187 172 187 183 159 146 145 141 142 141
130 150 131 188 227 207 250 258 245 214 226 242 194 210 227 195 209 215 210 204 225 224 228 255 284 343 265 285 353 335 24 354 295 304 181 180 182 136 317 217 178 190 180 181 197 176 192 180 160 159 166 160 156 156
158 189 184 187 220 236 273 230 239 223 229 232 211 233 228 217 214 155 215 222 231 210 268 303 2 45 326 347 348 4 342 317 22 45 41 10 57 113 128 211 231 205 187 197 210 186 179 175 168 164 158 160 158 156
165 196 239 213 210 204 155 218 248 271 226 244 231 258 256 216 157 245 260 254 94 109 149 138 289 281 188 174 261 180 153 300 318 169 182 284 258 200 193 189 215 230 225 216 207 184 182 177 174 169 165 165 168 163
158 190 238 201 212 192 201 205 220 242 217 224 266 263 187 154 222 247 253 229 85 70 51 0 296 57 327 327 313 274 156 314 318 331 337 296 297 293 67 207 198 225 225 220 205 174 174 180 179 176 172 174 179 179
222 174 210 230 189 208 200 211 201 214 243 242 241 272 344 225 244 238 244 82 117 144 140 146 312 82 106 65 26 42 30 4 329 321 322 351 331 328 295 248 232 222 227 225 213 186 181 184 188 185 187 188 195 191
243 231 220 220 291 252 270 325 357 245 251 226 219 197 194 224 226 197 113 112 126 117 108 76 40 32 23 15 21 19 358 348 345 342 345 322 321 333 316 299 293 286 239 220 218 215 202 195 198 199 195 195 200 201
346 18 343 326 271 270 276 271 231 230 226 223 222 206 213 217 231 48 49 60 82 89 83 65 47 36 22 8 349 348 345 343 328 307 299 291 279 277 294 297 301 297 251 229 236 234 232 218 209 204 200 203 203 208
336 1 325 281 258 223 227 230 224 213 278 274 254 243 318 59 5 15 51 56 65 66 53 29 20 15 23 10 5 357 342 344 346 329 323 323 334 11 8 6 333 302 278 250 250 247 244 236 231 216 211 209 211 211
313 333 306 281 286 238 305 350 357 18 12 18 333 172 115 83 31 44 53 57 58 63 65 54 40 33 29 22 11 2 9 15 11 356 329 325 326 324 329 328 320 310 284 264 261 264 246 238 236 218 209 210 211 208
302 304 303 335 294 3 332 324 284 251 230 234 111 252 103 129 106 38 28 46 64 60 55 43 34 29 14 13 7 357 359 4 352 340 326 312 310 315 318 318 320 318 291 263 250 233 228 209 200 201 209 210 212 211
326 318 316 278 306 314 323 345 309 262 197 209 202 183 149 169 100 74 12 31 50 44 34 23 19 10 3 6 15 20 12 4 358 354 351 345 333 320 314 313 307 300 300 273 248 233 224 220 223 224 220 215 212 215
301 298 310 331 318 332 339 325 276 293 246 233 92 107 85 56 72 67 31 30 52 28 13 5 355 349 7 5 37 22 4 350 349 347 350 351 346 335 319 310 303 294 286 286 274 250 235 229 225 227 224 221 221 227
Height
690 691 693 695 698 700 703 707 708 711 715 718 721 723 726 728 730 732 735 735 735 736 736 736 735 733 734 735 746 750 762 762 769 771 768 762 761 750 744 747 746 748 754 754 757 765 763 733 733 738 737 734 739 731
691 694 696 698 701 704 707 711 713 717 719 722 725 728 730 732 733 734 736 738 737 736 739 742 742 741 741 742 742 745 750 751 758 762 757 751 752 744 744 747 738 749 744 743 743 741 734 730 728 731 739 739 733 731
693 695 698 700 703 706 709 713 716 720 723 726 728 731 734 736 737 738 740 742 743 744 744 745 744 745 746 747 749 749 746 748 751 755 760 759 756 746 746 738 734 731 731 739 739 729 731 729 726 726 728 736 734 732
694 696 699 701 704 707 710 714 718 722 725 729 732 735 737 739 740 741 743 745 745 745 744 739 740 743 745 748 750 752 751 753 754 753 757 758 758 748 747 741 738 736 737 735 738 737 733 729 726 725 727 730 729 729
693 696 698 701 704 708 711 714 718 722 726 730 733 736 738 741 743 745 746 747 748 750 747 743 741 741 742 745 748 751 753 755 755 756 752 752 750 752 746 745 737 738 733 739 733 729 732 727 727 727 727 727 727 725
692 695 698 701 703 707 710 714 718 723 726 730 734 737 740 742 745 746 748 747 748 749 749 744 733 733 736 740 744 747 749 751 752 753 750 745 744 747 747 736 729 733 731 731 730 728 728 726 727 726 725 724 723 723
692 694 697 700 700 705 709 714 718 722 726 730 735 738 741 743 746 748 747 750 749 751 753 747 733 727 731 735 741 744 745 746 749 751 748 747 743 743 740 734 730 728 725 722 721 722 722 722 719 718 718 719 722 721
691 694 697 699 702 705 709 713 718 722 726 730 735 739 742 745 748 748 749 750 752 754 754 745 730 729 732 736 743 743 746 751 749 743 739 738 737 739 734 716 720 721 719 719 719 719 717 716 716 715 716 716 720 723
691 695 698 700 703 706 709 713 717 722 724 730 735 740 744 746 746 745 747 750 752 757 749 737 730 726 735 732 740 747 745 744 736 736 731 735 730 723 705 708 708 707 707 709 709 712 715 716 710 708 708 709 707 713
692 696 700 703 704 708 712 715 719 724 729 733 738 739 741 743 744 746 749 752 753 753 753 741 725 727 730 730 734 737 739 731 726 718 717 723 714 701 699 698 699 700 702 703 710 711 713 716 712 711 705 702 696 697
694 698 702 706 709 712 717 720 724 728 733 735 736 739 740 741 744 743 740 742 738 739 733 722 722 722 721 728 729 730 728 727 719 712 718 710 699 691 689 689 690 692 695 698 699 694 690 700 696 694 693 695 698 704
698 701 705 710 714 717 721 724 727 730 731 734 735 737 739 740 737 734 727 723 724 716 711 710 714 718 721 724 728 723 722 721 712 718 715 698 689 680 681 683 683 676 685 689 689 687 687 686 688 689 693 699 706 711
702 706 709 713 717 720 724 727 730 730 732 735 735 735 733 730 730 729 723 717 713 708 711 713 719 720 723 724 723 722 717 709 709 709 694 678 680 682 684 685 686 687 688 687 687 688 689 692 691 694 701 706 710 715
706 709 713 716 720 722 725 728 730 732 734 733 730 728 723 724 719 711 708 709 709 713 713 716 718 722 724 725 723 725 710 708 705 693 681 683 686 692 694 695 694 699 700 699 699 700 701 700 701 705 709 711 714 720
709 712 715 719 721 724 726 729 730 732 732 727 724 720 714 711 713 714 713 713 713 716 719 720 720 718 721 723 724 717 715 708 692 682 684 688 693 698 700 702 705 705 705 704 705 705 706 707 708 712 715 717 720 723
711 715 717 718 722 725 727 729 730 731 728 724 723 721 715 717 715 718 717 718 715 720 722 722 718 715 711 706 711 709 695 687 685 692 691 694 699 704 705 708 709 708 708 709 709 709 710 712 714 717 719 721 725 726
712 712 714 718 722 725 727 728 729 727 722 720 719 719 720 718 716 717 717 713 713 719 718 713 711 702 693 696 695 686 687 691 697 696 700 701 702 705 709 711 712 711 711 712 713 714 715 717 720 722 723 726 728 729
712 714 716 719 722 725 726 728 726 719 716 713 715 714 715 715 716 714 712 710 713 714 710 710 711 698 694 687 681 689 692 699 700 698 701 704 705 706 708 710 712 712 713 714 715 717 718 719 719 721 724 727 729 731
712 713 716 719 721 723 723 723 724 719 707 707 708 708 711 711 711 711 711 711 710 712 711 710 705 694 687 684 691 697 696 695 694 698 702 706 706 707 708 710 711 711 713 714 715 716 717 718 719 722 724 726 728 729
712 714 714 715 721 722 723 720 719 711 704 702 702 704 705 704 704 706 707 709 710 712 712 707 697 692 702 696 694 694 694 694 694 694 696 700 704 707 707 709 708 709 711 712 713 715 717 719 720 722 724 725 727 729
711 713 716 718 720 721 718 712 710 706 701 700 698 701 701 700 701 703 704 703 706 703 700 695 694 695 694 696 696 696 695 695 694 694 694 695 700 702 704 706 707 708 710 712 713 715 717 718 720 722 723 725 727 729
708 711 715 719 718 718 716 706 702 703 701 696 697 697 693 697 697 695 695 697 695 693 692 693 693 693 693 695 695 695 696 696 696 697 697 698 698 701 704 706 707 708 709 710 712 713 715 717 719 721 723 725 727 730
710 711 711 711 711 710 706 701 701 696 696 694 691 690 688 689 688 690 691 688 687 687 688 690 691 693 695 696 697 697 697 697 696 698 698 698 699 700 702 705 706 707 709 710 711 712 714 716 718 720 722 725 727 729
711 711 710 707 705 703 705 703 700 694 691 691 689 691 686 687 687 687 684 680 682 688 690 692 693 693 693 694 695 694 697 697 696 697 698 699 699 700 700 702 704 706 707 708 709 711 712 715 717 719 721 723 726 728
712 711 710 703 702 703 701 700 695 690 692 691 688 686 684 685 689 685 681 678 685 691 693 694 693 694 695 694 695 696 697 697 697 697 697 697 698 699 700 701 702 703 704 706 707 708 710 713 715 717 720 722 725 727
705 704 704 695 696 695 692 691 691 691 689 690 689 685 686 688 689 685 677 684 690 695 698 698 695 693 694 694 695 695 697 697 697 697 697 697 698 698 699 699 700 700 701 702 704 706 708 710 712 715 717 719 722 724
700 698 697 696 696 693 692 692 690 691 691 691 687 689 690 692 686 679 684 686 689 693 695 697 697 697 698 699 699 700 700 700 699 699 698 698 698 698 698 698 698 698 698 699 701 702 704 706 708 711 713 716 718 721
714 713 712 708 697 693 695 694 694 693 687 684 685 687 686 683 680 687 692 694 695 697 699 701 702 703 703 704 704 703 702 701 700 698 698 697 697 697 697 697 697 697 697 698 699 700 701 702 704 706 709 711 714 716
718 718 715 705 698 695 693 690 687 685 685 684 686 685 690 693 700 697 699 699 700 701 702 705 706 706 705 705 704 703 702 702 701 699 698 697 697 698 696 696 696 697 697 696 697 697 698 699 700 702 704 706 708 711
730 727 721 708 701 693 689 692 689 692 691 692 692 691 693 701 706 704 704 703 704 706 708 708 709 708 707 706 705 704 703 702 703 703 701 700 700 699 698 697 696 695 695 695 695 694 695 696 697 698 700 702 704 706
733 730 720 717 710 703 699 698 695 695 694 692 693 692 693 704 708 709 708 709 709 710 710 710 710 710 709 708 707 706 704 704 704 703 702 701 699 698 697 696 695 694 693 693 693 693 694 695 696 697 699 700 701 703
734 732 731 723 713 706 703 699 693 688 687 689 688 691 694 694 702 713 716 714 713 713 714 714 713 713 712 711 710 709 709 707 705 704 702 700 698 697 695 694 693 692 692 691 691 692 692 693 694 695 696 697 698 700
731 728 724 720 715 712 707 705 694 687 685 684 685 687 691 694 705 715 720 719 719 719 718 717 716 714 713 712 711 710 710 708 706 704 702 700 697 695 693 692 691 690 690 689 689 689 689 690 691 692 693 694 695 696